Location: De Platvoet
(52.2667°N, 6.1667°E)
Time: 13:24:59
(UTC+00:00)

Cosmos 1758 Rocket - Pass Details

Date: 15 May 2026
Orbit: 596 x 627 km, 82.5° (Epoch: 11 June)

Event Time Altitude Azimuth Distance (km) Brightness Sun altitude
Rises 20:14:10 0° 350° (N) 2,895 8.0 -6.8°
Reaches altitude 10° 20:16:23 10° 352° (N) 1,990 7.0 -7.1°
Maximum altitude 20:20:48 77° 78° (ENE) 643 3.6 -7.5°
Drops below altitude 10° 20:25:13 10° 165° (SSE) 1,991 5.6 -8.0°
Enters shadow 20:25:54 - 166° (SSE) 2,262 5.9 -8.1°
